DMSP 5D-2 F11 DEB, 28346

Orbit data source: Space-Track

DMSP 5D-2 F11 DEB, 28346 is space debris in SSO originally from a launch on Thu, 28 Nov 1991 UTC launched from the Air Force Western Test Range (AFWTR). Debris objects in space refer to the collection of defunct objects orbiting the Earth. Examples of debris include non-operational satellites, rocket bodies, and fragments generated from explosions, collisions, or faulty payload assembly.

Loading next visibility...
Identifier
28346, 1991-082BK
Orbit
SSO
Country
Flag of USUS
Related business
Manufacturer
Unknown
Mission
Spacecraft
Bus & Motor
Unknown
Mass
Unknown
Launch date (UTC)
1991-11-28 (34 years ago)
Launch vehicle
Unknown
Launch site
Air Force Western Test Range (AFWTR)
Object type
Payload
Rocket body
Debris
Shape & HBR
Unknown shape, 0.1 m
Radar Cross Section
Small (<0.1 m²)

Expand to show TLE details & history
Last TLE update: 5 days ago

TLE from 5 days ago
0 DMSP 5D-2 F11 DEB
1 28346U 91082BK  25344.55618147  .00326340  00000-0  12891-1 0  9998
2 28346  98.5258 100.9895 0006557 284.2863 137.3174 15.24016735126773
Epoch: 2025-12-10T13:20Z
TLE epoch observation values (Epoch: 2025-12-10T13:20:54.079Z)
Latitude
60.60276°
Longitude
165.8953°
Altitude
507.387 km
Speed
7.614 km/s
True Right ascension
05h 42m 34s
True Declination
60° 27' 00"
Sunlit
Object was in full shadow at epoch
Visualization orbit readout
Latitude
Unknown
Longitude
Unknown
Altitude
Unknown
Speed
Unknown
Apparent Right ascension
Unknown
Apparent Declination
Unknown
Sunlit
N/A
Visualization observer readout
Local Sidereal Time
13:18:18
Azimuth
Unknown
Elevation
Unknown
Doppler factor
Unknown
Orbital elements
Apogee altitude
495.256 km
Perigee altitude
486.248 km
Semi-major axis
6,868.889 km
Eccentricity
0.00066
Inclination
98.5258°
RAAN
100.9895°
Arg. of periapsis
284.2863°
True anomaly
137.36831°
Mean anomaly
137.3174°
Eccentric anomaly
137.34286°
Mean motion
3.81253 °/min
Orbital period
94.43 mins
BSTAR
0.012891
Loading maneuver chart data...
Computing Atmospheric mass density...

Documentation

Showing up to 5 results
|